Location: Drocourt
(49.0571°N, 1.7669°E)
Time: 14:39:27
(UTC+00:00)

Vanguard 2 Rocket - Pass Details

Date: 19 April 2024
Orbit: 554 x 3294 km, 32.9° (Epoch: 24 April)

Event Time Altitude Azimuth Distance (km) Brightness Sun altitude
Rises 02:09:38 0° 269° (W) 7,264 11.2 -22.5°
Reaches altitude 10° 02:15:09 10° 262° (W) 6,245 10.7 -21.9°
Maximum altitude 02:31:39 36° 206° (SSW) 3,913 9.5 -20.2°
Drops below altitude 10° 02:44:00 10° 147° (SSE) 4,680 10.4 -18.8°
Sets 02:47:27 0° 138° (SE) 5,328 10.8 -18.4°
